Stations météo

réclame
Mon MeteoGroup
Dunkerque, France (7010): Température de l'air & dewpoint: 12.01.2020 02:00:00 - 18.01.2020 02:00:00 (CET)Dunkerque, France (7010): Vitesse du vent & gusts: 12.01.2020 02:00:00 - 18.01.2020 02:00:00 (CET)Dunkerque, France (7010): Direction du vent: 12.01.2020 02:00:00 - 18.01.2020 02:00:00 (CET)Dunkerque, France (7010): reduced air pressure: 12.01.2020 02:00:00 - 18.01.2020 02:00:00 (CET)Dunkerque, France (7010): visibility: 12.01.2020 02:00:00 - 18.01.2020 02:00:00 (CET)Dunkerque, France (7010): Quantités de précipitations: 12.01.2020 02:00:00 - 18.01.2020 02:00:00 (CET)
Date & Time tt [°C] td [°C] ff [km/h] ff [knt] fx [km/h] fx [knt] dd ppp [hPa] vv [km] rr [mm]
18.01.2020 02:00:00 5,3 3,8 19 10 29 16 SSW 1020,8 - 0,4
18.01.2020 01:00:00 5,2 3,2 19 10 36 19 SSW 1020,3 - 0,4
18.01.2020 00:00:00 5,7 3,2 21 11 36 19 SW 1020,2 - 0,2
17.01.2020 23:00:00 5,3 2,8 15 8 24 13 SSW 1019,8 - 0,0
17.01.2020 22:00:00 5,7 2,3 16 9 36 19 SSW 1019,5 - 0,0
17.01.2020 21:00:00 7,6 2,5 16 9 36 19 SW 1018,9 - 0,0
17.01.2020 20:00:00 8,3 2,7 21 12 43 23 WSW 1018,6 - 0,0
17.01.2020 19:00:00 8,4 2,8 26 14 54 29 W 1017,9 15 0,0
17.01.2020 18:00:00 8,7 4,5 32 17 53 29 W 1017,0 - 0,0
17.01.2020 17:00:00 8,7 4,1 26 14 59 32 WSW 1015,9 - 0,0
17.01.2020 16:00:00 9,4 3,8 35 19 66 36 WSW 1015,2 - 0,0
17.01.2020 15:00:00 9,9 4,7 31 17 70 38 SW 1013,5 - 0,0
17.01.2020 14:00:00 10,9 5,8 31 17 58 31 SW 1012,9 - 0,0
17.01.2020 13:00:00 11,0 6,7 31 17 54 29 SW 1012,7 - 0,0
17.01.2020 12:00:00 10,6 7,3 26 14 47 25 SW 1012,7 - 0,0
17.01.2020 11:00:00 10,3 8,2 21 11 34 19 SW 1012,7 - 0,0
17.01.2020 10:00:00 9,8 8,6 17 9 26 14 SSW 1012,2 15 0,0
17.01.2020 09:00:00 9,6 8,7 16 9 31 17 SSW 1012,2 - 0,0
17.01.2020 08:00:00 9,6 8,7 21 11 34 18 S 1011,5 - 0,0
17.01.2020 07:00:00 9,3 8,5 14 8 25 13 S 1011,6 15 0,4
17.01.2020 06:00:00 9,2 8,3 16 9 26 14 S 1011,9 - 0,4
17.01.2020 05:00:00 9,3 8,1 16 9 28 15 S 1012,0 - 0,8
17.01.2020 04:00:00 9,5 7,1 16 8 31 17 S 1012,2 15 0,2
17.01.2020 03:00:00 9,5 6,2 23 13 33 18 S 1012,5 - 0,0
17.01.2020 02:00:00 9,5 6,2 19 10 29 16 S 1012,9 - 0,0
17.01.2020 01:00:00 9,4 6,1 17 9 28 15 S 1013,5 15 0,0
17.01.2020 00:00:00 9,7 6,0 18 10 33 18 S 1013,8 - 0,0
16.01.2020 23:00:00 10,2 6,2 23 12 37 20 S 1014,1 - 0,0
16.01.2020 22:00:00 10,6 6,3 27 15 42 23 S 1014,1 15 0,0
16.01.2020 21:00:00 11,0 6,5 29 16 49 26 S 1014,5 - 0,0
16.01.2020 20:00:00 11,3 6,8 38 20 53 29 S 1014,7 - 0,0
16.01.2020 19:00:00 11,3 7,4 35 19 51 28 S 1014,9 15 0,0
16.01.2020 18:00:00 11,3 7,6 34 19 55 30 S 1015,4 - 0,0
16.01.2020 17:00:00 11,4 7,7 27 14 43 23 S 1016,3 - 0,0
16.01.2020 16:00:00 11,6 7,9 27 14 39 21 SSE 1016,8 - 0,0
16.01.2020 15:00:00 10,5 7,6 25 13 48 26 SSE 1017,4 - 0,0
16.01.2020 14:00:00 10,2 7,6 30 16 46 25 S 1018,4 - 0,0
16.01.2020 13:00:00 8,0 6,6 29 16 48 26 SSE 1019,7 8 0,0
16.01.2020 12:00:00 6,6 5,4 33 18 47 25 S 1020,9 - 0,0
16.01.2020 11:00:00 6,4 4,9 26 14 37 20 S 1021,5 - 0,0
16.01.2020 10:00:00 5,5 4,1 27 15 38 20 S 1022,1 - 0,0
16.01.2020 09:00:00 4,8 3,6 21 11 32 17 S 1022,2 - 0,0
16.01.2020 08:00:00 4,6 2,9 14 7 25 13 SSE 1022,8 - 0,0
16.01.2020 07:00:00 4,8 3,3 16 9 24 13 SSE 1023,1 - 0,0
16.01.2020 06:00:00 4,9 3,6 15 8 19 11 S 1023,1 - 0,0
16.01.2020 05:00:00 5,2 3,7 12 6 24 13 SSE 1023,0 - 0,0
16.01.2020 04:00:00 5,7 4,3 16 8 26 14 SSW 1022,7 - 0,0
16.01.2020 03:00:00 6,2 5,0 16 9 23 12 SSW 1022,5 - 0,0
16.01.2020 02:00:00 7,3 5,9 14 8 22 12 SSW 1022,0 - 0,0
16.01.2020 01:00:00 7,8 6,4 17 9 29 15 SSW 1021,9 20 0,0
16.01.2020 00:00:00 7,7 6,5 16 9 24 13 SW 1021,3 - 0,0
15.01.2020 23:00:00 7,1 5,9 13 7 26 14 SSW 1020,6 - 0,0
15.01.2020 22:00:00 7,5 6,3 15 8 26 14 SSW 1019,7 - 0,0
15.01.2020 21:00:00 7,2 6,0 15 8 25 14 SSW 1018,8 - 0,0
15.01.2020 20:00:00 7,2 5,7 16 9 29 15 SSW 1017,9 - 0,0
15.01.2020 19:00:00 7,4 5,7 15 8 27 14 SSW 1016,6 - 0,0
15.01.2020 18:00:00 7,5 5,6 16 8 26 14 SSW 1015,4 - 0,0
15.01.2020 17:00:00 8,2 6,0 16 8 24 13 SSW 1013,9 - 0,0
15.01.2020 16:00:00 7,9 6,4 16 9 24 13 SSW 1011,9 12 0,2
15.01.2020 15:00:00 7,6 5,7 20 11 34 18 W 1010,9 - 0,4
15.01.2020 14:00:00 7,9 6,8 23 13 42 23 WNW 1009,4 - 1,4
15.01.2020 13:00:00 10,3 7,5 27 14 58 31 SSW 1007,4 - -
15.01.2020 12:00:00 10,4 6,9 33 18 63 34 SSW 1006,8 - -
15.01.2020 11:00:00 11,5 5,8 37 20 62 34 SSW 1005,3 - 0,0
15.01.2020 10:00:00 10,9 5,2 34 19 59 32 S 1004,7 - 0,0
15.01.2020 09:00:00 10,4 5,2 35 19 59 32 S 1004,5 - 0,0
15.01.2020 08:00:00 10,6 5,4 33 18 51 28 S 1004,4 - 0,0
15.01.2020 07:00:00 10,7 5,4 32 17 64 35 S 1004,1 10 0,0
15.01.2020 06:00:00 11,0 5,7 33 18 65 35 S 1003,7 - 0,0
15.01.2020 05:00:00 11,9 6,2 40 21 66 35 SSW 1003,3 - 0,0
15.01.2020 04:00:00 12,3 6,6 35 19 63 34 SSW 1003,4 10 0,0
15.01.2020 03:00:00 12,7 7,2 36 19 64 34 SSW 1003,4 - 0,0
15.01.2020 02:00:00 12,8 7,7 40 22 68 37 SSW 1003,3 - 0,0
15.01.2020 01:00:00 12,6 8,5 41 22 78 42 SSW 1003,0 - 0,0
15.01.2020 00:00:00 12,4 9,2 39 21 79 42 SSW 1003,0 - 0,0
14.01.2020 23:00:00 12,1 10,0 44 24 76 41 SSW 1002,9 - 0,6
14.01.2020 22:00:00 12,2 9,9 40 22 78 42 SSW 1002,4 - 0,0
14.01.2020 21:00:00 12,4 9,9 45 25 76 41 SSW 1001,8 - 0,2
14.01.2020 20:00:00 13,3 9,5 40 22 72 39 SSW 1001,4 - 0,0
14.01.2020 19:00:00 13,1 9,7 41 22 80 43 SSW 1001,3 10 0,0
14.01.2020 18:00:00 13,1 9,9 41 22 70 38 SSW 1001,0 - 0,0
14.01.2020 17:00:00 13,3 9,9 41 22 68 37 SSW 1000,5 - 0,0
14.01.2020 16:00:00 12,3 10,0 35 19 58 31 SSW 1000,3 - 0,0
14.01.2020 15:00:00 10,8 9,7 32 17 57 31 S 1000,2 - 0,0
14.01.2020 14:00:00 10,5 9,6 32 17 53 29 S 1000,6 - 0,2
14.01.2020 13:00:00 9,9 9,3 27 15 44 24 S 1001,5 - 0,2
14.01.2020 12:00:00 9,5 8,6 27 15 42 23 S 1002,6 - 0,0
14.01.2020 11:00:00 9,6 7,9 24 13 37 20 S 1003,0 - 0,0
14.01.2020 10:00:00 8,8 7,6 22 12 36 20 S 1002,8 - 0,0
14.01.2020 09:00:00 8,5 7,4 19 10 33 18 S 1002,6 - 0,0
14.01.2020 08:00:00 8,5 7,4 22 12 30 16 SSW 1002,6 - 0,6
14.01.2020 07:00:00 8,6 7,4 17 9 31 17 SSW 1002,4 15 0,6
14.01.2020 06:00:00 9,4 7,0 22 12 45 25 SW 1001,4 - 0,6
14.01.2020 05:00:00 9,5 8,3 27 15 50 27 WSW 1001,1 - 1,0
14.01.2020 04:00:00 9,8 8,2 28 15 54 29 SSW 1000,1 15 0,4
14.01.2020 03:00:00 10,5 8,4 34 18 59 32 SSW 1000,2 - 0,4
14.01.2020 02:00:00 10,9 8,3 35 19 60 32 SSW 1000,3 - 0,0
14.01.2020 01:00:00 10,4 8,2 32 18 56 30 S 1000,6 - 0,2
14.01.2020 00:00:00 10,3 8,2 36 19 60 33 SSW 1001,3 - 0,2
13.01.2020 23:00:00 10,5 7,7 37 20 67 36 SSW 1002,1 - 0,0
13.01.2020 22:00:00 10,8 7,5 40 22 63 34 S 1002,3 10 0,0
13.01.2020 21:00:00 10,5 7,6 36 19 63 34 S 1003,5 - 0,0
13.01.2020 20:00:00 10,1 7,9 32 17 50 27 S 1004,8 - 0,0
13.01.2020 19:00:00 9,5 8,4 31 17 55 30 S 1005,8 - 0,0
13.01.2020 18:00:00 9,4 7,8 32 17 53 28 S 1006,6 - 0,0
13.01.2020 17:00:00 8,8 7,6 26 14 40 22 S 1007,6 - 0,0
13.01.2020 16:00:00 8,1 7,3 25 14 37 20 S 1009,5 - 0,2
13.01.2020 15:00:00 8,2 6,8 22 12 37 20 S 1010,9 - 0,0
13.01.2020 14:00:00 8,2 5,8 23 12 46 25 S 1012,2 - 0,0
13.01.2020 13:00:00 8,4 5,3 29 16 46 25 S 1013,5 15 0,0
13.01.2020 12:00:00 7,6 5,4 22 12 35 19 S 1015,2 - 0,0
13.01.2020 11:00:00 6,7 5,5 23 13 38 20 S 1016,5 - 0,0
13.01.2020 10:00:00 5,3 4,6 18 10 33 18 S 1017,4 10 0,0
13.01.2020 09:00:00 4,8 3,8 19 11 30 16 S 1017,7 - 0,0
13.01.2020 08:00:00 5,1 4,2 17 9 24 13 S 1018,0 - 0,0
13.01.2020 07:00:00 6,0 5,0 16 9 26 14 S 1018,4 20 0,0
13.01.2020 06:00:00 6,6 5,1 18 10 26 14 SSW 1018,8 - 0,0
13.01.2020 05:00:00 6,8 4,9 14 8 24 13 SSW 1019,7 - 0,0
13.01.2020 04:00:00 7,2 5,3 14 8 25 13 SSW 1020,4 20 0,0
13.01.2020 03:00:00 7,3 6,2 14 8 25 14 SSW 1021,1 - 0,4
13.01.2020 02:00:00 6,7 5,8 15 8 20 11 SSW 1021,5 - 0,0
13.01.2020 01:00:00 6,7 5,6 15 8 19 11 S 1022,1 20 0,0
13.01.2020 00:00:00 7,2 5,7 14 8 25 13 S 1022,4 - 0,0
12.01.2020 23:00:00 7,5 6,0 17 9 25 14 SSW 1022,3 - 0,0
12.01.2020 22:00:00 7,9 6,2 16 9 25 13 SSW 1022,4 15 0,0
12.01.2020 21:00:00 9,6 7,0 18 10 34 18 SW 1022,1 - 0,0
12.01.2020 20:00:00 9,8 6,9 18 10 36 19 SW 1022,1 - 0,0
12.01.2020 19:00:00 9,9 7,0 17 9 39 21 WSW 1021,6 15 0,0
12.01.2020 18:00:00 10,3 7,0 24 13 41 22 SW 1021,2 - 0,0
12.01.2020 17:00:00 10,7 7,4 23 12 55 30 WSW 1020,7 - 0,0
12.01.2020 16:00:00 11,4 7,7 31 17 62 33 WSW 1019,7 15 0,0
12.01.2020 15:00:00 11,6 7,5 29 16 68 37 WSW 1018,9 - 0,0
12.01.2020 14:00:00 12,0 8,1 35 19 63 34 WSW 1018,9 - 0,0
12.01.2020 13:00:00 11,8 8,6 28 15 60 33 WSW 1018,8 - 0,0
12.01.2020 12:00:00 11,3 9,4 31 17 63 34 SW 1019,2 - 0,0
12.01.2020 11:00:00 9,2 8,6 28 15 44 24 SW 1019,2 - 0,0
12.01.2020 10:00:00 7,8 7,0 24 13 48 26 SSW 1019,0 - 0,2
12.01.2020 09:00:00 7,6 6,5 27 15 49 26 SSW 1018,8 - 0,0
12.01.2020 08:00:00 8,2 5,5 27 14 54 29 SSW 1019,2 - 0,0
12.01.2020 07:00:00 8,1 4,9 35 19 51 28 SW 1019,6 20 0,0
12.01.2020 06:00:00 7,6 4,0 23 12 37 20 SSW 1019,9 - 0,0
12.01.2020 05:00:00 7,5 4,1 24 13 44 24 SSW 1020,9 - 0,0
12.01.2020 04:00:00 7,7 3,9 27 15 39 21 SSW 1021,2 20 0,0
12.01.2020 03:00:00 7,5 3,9 19 11 36 19 S 1022,4 - 0,0
12.01.2020 02:00:00 8,0 4,0 15 8 33 18 SSW 1023,0 - 0,0

tt = Température de l'air
td = dewpoint
ff = Vitesse du vent
fx = gusts
dd = Direction du vent
ppp = reduced air pressure
vv = visibility
rr = Quantités de précipitations

stations d'obs. à proximité